CAPE
229 330 444 488 518 544 536 539 532 446 480 471 465 460 570 570 710 860 951 1071 1180 1214 1320 1416 1468 1499 1507 1478 1413 1346 1259 1212 1204 1195 1183 1204 1176 1114 1099 1094 1022 1000 1153 1567 1787 1839 1890 1948 2020 2046 2122 2227 2264 2300 2364 2498 2652 2761 2791 2746 2686 2623 2506
192 278 419 502 544 586 578 578 582 561 538 564 557 546 584 637 717 838 954 1082 1218 1252 1347 1434 1491 1498 1497 1492 1445 1404 1345 1277 1234 1185 1169 1183 1182 1142 1077 1046 1008 941 927 1310 1600 1743 1792 1867 1992 2053 2115 2227 2295 2307 2370 2476 2616 2716 2760 2786 2770 2740 2660
49 232 359 484 555 614 628 627 618 609 600 590 660 635 634 683 744 839 946 1064 1226 1289 1353 1448 1529 1534 1515 1504 1470 1458 1431 1385 1328 1297 1282 1222 1212 1197 1119 1069 1034 996 901 1082 1416 1650 1732 1783 1885 2033 2101 2201 2316 2348 2388 2458 2574 2682 2747 2791 2814 2834 2802
46 136 292 450 549 607 650 662 657 650 648 625 674 723 734 702 769 850 956 1036 1186 1292 1348 1424 1520 1561 1536 1520 1498 1490 1480 1446 1404 1393 1386 1304 1204 1211 1164 1112 1088 1066 1062 982 1293 1532 1709 1732 1780 1920 2274 2155 2270 2359 2399 2450 2541 2630 2702 2751 2784 2808 2816
92 128 287 405 522 583 652 687 684 675 681 693 674 755 830 825 823 856 954 1036 1113 1243 1322 1405 1495 1552 1546 1524 1511 1504 1501 1494 1487 1456 1405 1322 1178 1185 1229 1176 1112 1040 1179 1155 1246 1519 1693 1752 1744 1827 1976 2125 2218 2319 2388 2446 2508 2607 2670 2722 2755 2756 2778
227 152 235 406 507 594 662 702 700 703 716 735 752 768 857 908 908 891 934 1028 1081 1152 1246 1348 1453 1522 1538 1521 1508 1496 1499 1505 1492 1446 1396 1314 1233 1132 1263 1320 1204 1109 1034 1281 1342 1536 1670 1773 1775 1808 1885 2036 2158 2246 2325 2421 2502 2584 2660 2692 2720 2761 2772
210 286 344 418 532 621 666 701 722 735 740 762 768 826 869 954 998 992 939 1007 1081 1131 1184 1259 1358 1455 1489 1492 1499 1483 1481 1480 1464 1446 1378 1325 1238 1149 1136 1316 1376 1235 1127 1169 1427 1620 1715 1773 1787 1805 1849 1960 2085 2174 2243 2341 2480 2568 2647 2688 2708 2747 2786
170 299 267 421 533 643 700 739 758 768 756 775 773 830 887 951 1012 1048 1045 1020 1098 1124 1149 1176 1260 1382 1454 1462 1471 1482 1466 1458 1448 1426 1404 1320 1214 1166 1136 1150 1366 1468 1347 1178 1302 1614 1794 1828 1842 1813 1833 1898 2017 2124 2186 2258 2378 2516 2615 2667 2690 2731 2762
278 317 381 425 509 621 718 791 807 794 799 815 798 779 896 988 1038 1077 1090 1072 1105 1148 1154 1139 1162 1252 1375 1410 1418 1433 1437 1418 1397 1366 1321 1241 1174 1181 1198 1193 1268 1431 1521 1470 1376 1432 1735 1886 1913 1914 1875 1860 1950 2081 2172 2229 2291 2420 2544 2612 2650 2679 2722
156 337 386 440 500 578 711 822 838 828 838 839 830 825 903 1017 1055 1088 1134 1154 1149 1176 1187 1156 1132 1166 1280 1361 1352 1346 1347 1331 1293 1260 1238 1228 1202 1211 1257 1280 1311 1468 1584 1581 1480 1430 1562 1802 1954 1994 1966 1903 1891 1993 2151 2234 2282 2354 2470 2556 2602 2638 2669
129 186 298 442 493 565 667 777 874 919 935 912 880 858 930 1024 1086 1124 1149 1176 1196 1205 1219 1212 1170 1141 1171 1296 1364 1357 1332 1304 1265 1252 1242 1249 1254 1258 1306 1356 1395 1498 1681 1731 1696 1583 1525 1678 1912 2043 2056 2002 1932 1938 2046 2182 2272 2331 2414 2500 2558 2602 2628
141 159 211 251 314 554 630 755 887 956 974 954 934 927 929 1044 1111 1164 1181 1198 1210 1227 1238 1263 1245 1206 1184 1201 1302 1368 1364 1342 1303 1276 1261 1265 1295 1308 1321 1394 1482 1576 1738 1845 1880 1828 1715 1655 1792 2008 2112 2105 2048 1987 2000 2107 2220 2312 2374 2456 2538 2596 2633
165 185 209 248 361 561 689 784 874 947 1005 1032 1017 991 980 1070 1134 1186 1210 1240 1266 1289 1285 1298 1317 1299 1278 1256 1243 1280 1364 1376 1364 1335 1328 1333 1342 1342 1358 1388 1478 1594 1708 1880 1985 1993 1938 1875 1830 1830 2050 2170 2170 2104 2061 2098 2190 2288 2373 2430 2484 2548 2598
609 224 255 280 364 610 725 834 912 949 992 1054 1069 1060 1020 1086 1161 1214 1252 1287 1309 1316 1306 1313 1322 1356 1354 1344 1326 1318 1337 1406 1420 1414 1400 1409 1420 1426 1434 1432 1466 1551 1654 1776 1935 2047 2076 2038 1968 1940 1897 2000 2137 2220 2195 2172 2195 2257 2322 2393 2442 2502 2557
409 407 440 490 568 674 786 852 933 993 1016 1038 1049 1057 1102 1150 1195 1253 1284 1312 1354 1363 1361 1348 1344 1367 1398 1412 1415 1402 1385 1382 1460 1484 1478 1473 1502 1532 1553 1570 1568 1580 1630 1705 1791 1925 2072 2126 2095 2019 1962 1910 1884 1976 2078 2134 2160 2200 2264 2325 2404 2479 2536
476 475 511 579 644 726 812 880 950 1028 1102 1110 1091 1118 1180 1229 1270 1317 1360 1374 1388 1414 1422 1405 1408 1413 1438 1466 1466 1449 1436 1420 1471 1545 1573 1577 1590 1596 1627 1668 1706 1711 1716 1728 1760 1801 1915 2064 2149 2158 2105 2042 1964 1890 1948 1977 1990 2030 2151 2260 2346 2447 2546
516 548 586 631 711 774 837 912 978 1046 1123 1178 1193 1201 1235 1300 1324 1353 1414 1459 1494 1523 1560 1526 1510 1479 1481 1520 1530 1548 1539 1536 1574 1627 1667 1693 1686 1680 1683 1722 1772 1835 1842 1838 1842 1831 1827 1886 2004 2135 2204 2199 2148 2057 1984 2084 2109 2073 2088 2212 2348 2421 2542
564 607 638 702 764 825 872 929 985 1080 1152 1178 1206 1222 1233 1280 1344 1386 1462 1547 1616 1677 1730 1694 1660 1614 1582 1582 1630 1664 1685 1687 1699 1723 1757 1764 1794 1798 1789 1782 1809 1865 1915 1946 1960 1952 1906 1857 1872 1952 2070 2168 2197 2160 2086 2056 2160 2278 2296 2286 2342 2443 2500
602 646 690 759 822 872 922 956 1022 1116 1215 1232 1241 1253 1264 1280 1358 1438 1498 1593 1721 1812 1909 1922 1869 1788 1725 1716 1735 1756 1777 1802 1833 1848 1851 1865 1870 1880 1883 1892 1888 1901 1943 2003 2036 2048 2010 1961 1914 1894 1919 1993 2083 2152 2173 2131 2058 2142 2397 2504 2519 2504 2494
586 660 704 786 873 920 951 983 1026 1090 1198 1280 1320 1328 1332 1330 1379 1444 1501 1578 1800 1953 2054 2101 2090 2038 1981 1912 1897 1884 1889 1915 1940 1967 1982 1965 1942 1951 1976 1978 1978 1966 1984 2016 2058 2090 2082 2064 2028 1964 1912 1884 1900 1960 2050 2123 2157 2141 2112 2240 2480 2602 2615
581 656 716 797 902 938 981 1019 1049 1089 1183 1268 1326 1331 1338 1350 1348 1485 1499 1681 1876 2052 2207 2264 2289 2268 2226 2175 2119 2078 2046 2036 2036 2060 2076 2128 2231 2278 2285 2224 2064 2046 2054 2057 2088 2116 2127 2120 2097 2047 1979 1910 1859 1837 1848 1913 2011 2107 2132 2127 2091 2249 2480
564 662 734 820 920 983 1017 1048 1090 1124 1206 1270 1319 1362 1372 1424 1577 1782 1848 1893 2000 2114 2273 2408 2460 2474 2453 2413 2372 2323 2271 2219 2180 2188 2331 2413 2480 2509 2497 2459 2401 2290 2121 2106 2111 2109 2105 2098 2064 2056 2036 2000 1929 1850 1799 1800 1856 1941 2031 2108 2142 2117 2072
501 589 676 751 862 958 1014 1054 1079 1123 1157 1212 1288 1362 1406 1418 1629 1937 2074 2133 2186 2253 2326 2501 2646 2700 2714 2678 2634 2595 2527 2460 2372 2531 2625 2690 2711 2712 2702 2719 2745 2737 2683 2488 2278 2135 2105 2064 2034 2006 1994 1982 1957 1921 1867 1803 1774 1801 1915 2038 2106 2132 2144
1597 959 564 669 723 831 903 939 960 1190 1126 1153 1204 1301 1369 1401 1628 1963 2228 2344 2376 2420 2452 2563 2765 2914 2998 2988 2936 2905 2820 2727 2685 2770 2872 2919 2932 2926 2934 2968 3029 3072 3062 2966 2764 2567 2304 2092 2030 1976 1917 1881 1876 1880 1898 1882 1841 1815 1779 1800 2022 2124 2178
3020 2725 2319 1690 1346 1395 1376 1319 1530 1824 1556 1344 1464 1786 1801 1765 1903 2084 2314 2503 2593 2626 2650 2688 2802 3015 3208 3289 3262 3220 3158 3050 2950 2980 3073 3109 3115 3114 3142 3174 3224 3267 3263 3231 3135 3000 2805 2549 2218 2023 1926 1866 1809 1791 1806 1829 1846 1845 1839 1808 1769 1932 2085
3412 3328 3249 3178 3064 2974 3060 3096 2853 2652 2610 2575 2737 2794 2536 2627 2623 2644 2588 2654 2722 2806 2862 2892 2903 2988 3203 3413 3513 3517 3466 3396 3297 3207 3242 3273 3278 3295 3332 3361 3378 3414 3418 3375 3308 3214 3094 2942 2742 2462 2112 1923 1854 1803 1775 1757 1824 1842 1864 1857 1827 1808 1932
3244 3272 3318 3378 3514 3733 3466 3510 3536 3598 3678 3628 3261 2874 2761 2964 3102 3238 3218 3111 3056 3016 3006 3017 2993 3000 3132 3377 3604 3700 3707 3660 3592 3530 3481 3438 3469 3468 3497 3506 3529 3544 3537 3506 3459 3373 3273 3149 2989 2800 2568 2274 1986 1912 1868 1835 1982 2052 2092 2113 2106 2100 2100
2910 3100 3311 3764 3948 3653 3644 3686 3716 3736 3771 3799 3783 3516 3060 3086 3261 3436 3545 3555 3526 3454 3308 3129 3186 3272 3306 3336 3522 3718 3798 3827 3810 3751 3714 3673 3652 3666 3655 3653 3652 3655 3644 3602 3549 3499 3418 3304 3154 2992 2828 2628 2383 2108 2037 2098 2129 2246 2314 2369 2406 2430 2450
2632 2796 3014 3160 3242 3251 3328 3451 3610 3670 3717 3734 3756 3744 3808 3510 3528 3758 3422 3628 3762 3746 3718 3721 3762 3757 3742 3709 3693 3699 3684 3748 3874 3891 3867 3840 3812 3785 3773 3757 3762 3757 3737 3700 3646 3583 3524 3430 3319 3190 3040 2870 2678 2442 2274 2226 2207 2238 2387 2500 2610 2665 2725
2670 2793 3070 3158 3132 2986 3006 3261 3482 3655 3688 3734 3800 3820 3685 3713 3904 4148 3868 3674 3644 3726 3686 3727 3842 3883 3914 3896 3890 3870 3848 3856 3826 3793 3911 3919 3908 3895 3876 3854 3838 3830 3820 3769 3707 3642 3574 3509 3409 3307 3183 3051 2877 2699 2571 2398 2357 2351 2344 2434 2653 2805 2894
2749 2804 2855 2938 2964 2851 2687 2649 2749 3074 3574 3827 3879 3853 3869 3791 3831 3855 3900 4234 4324 4478 4372 3668 3533 3682 3852 3941 3966 3971 3940 3943 3920 3916 3912 3897 3957 3964 3943 3924 3909 3901 3878 3822 3779 3719 3635 3570 3487 3402 3291 3152 3011 2868 2832 2740 2688 2590 2511 2580 2623 2701 2868
2639 2755 2788 2802 2774 2746 2596 2427 2315 2280 2334 3016 3815 4009 4005 3996 3832 3890 4001 4307 4698 4864 4846 4482 3710 3343 3254 3323 3543 3727 3827 3871 3891 3898 3905 3912 3969 3983 3966 3958 3942 3950 3918 3853 3813 3742 3666 3602 3546 3474 3374 3262 3137 3063 3083 3098 3070 3074 2971 2817 2672 2857 2944
2446 2624 2677 2682 2699 2678 2534 2456 2353 2219 2098 1996 1981 3039 3963 4068 4089 4090 4044 4124 4376 4745 4995 4962 4384 3671 3221 3206 3477 3562 3592 3654 3696 3740 3826 3920 3973 3991 3999 3976 3972 3946 3907 3880 3823 3776 3698 3638 3600 3527 3436 3363 3224 3262 3352 3430 3472 3471 3409 3303 3330 3541 3710
2332 2468 2562 2568 2510 2472 2448 2443 2388 2273 1961 1828 1835 1959 2262 3318 3930 4064 4107 4072 4155 4497 4804 4987 4855 4407 3666 3190 3481 3694 3750 3735 4210 4030 3831 3914 3988 4086 4028 4025 4011 3979 3954 3887 3840 3794 3757 3706 3629 3578 3535 3474 3402 3558 3720 3838 3866 3820 3768 3670 3822 4026 4129
2045 2337 2413 2465 2454 2395 2236 2078 2030 2047 2003 1918 1969 1982 2056 2332 2626 3519 4000 4053 4064 4391 4582 4830 4963 4770 4404 3852 3412 3713 3919 3964 4170 4068 3990 4018 4034 4068 4072 4092 4118 4033 4016 3964 3937 3880 3836 3765 3700 3672 3626 3640 3792 3979 4153 4224 4218 4145 4026 4002 3977 3995 3993
1696 2136 2295 2311 2321 2250 2055 1882 1841 1865 2004 1891 1993 2024 2178 2338 2424 2593 3076 3864 4016 4112 4424 4631 4780 4814 4628 4288 3892 3719 4095 4307 4523 4312 4200 4156 4156 4156 4182 4173 4228 4286 4275 4264 4083 4060 4041 3960 3937 4057 4212 4267 4372 4454 4519 4511 4445 4322 4258 4247 4192 4114 3972
1418 1922 2256 2239 2166 2091 1973 1824 1856 1884 1874 1998 2050 2085 2224 2268 2424 2520 2630 2978 3690 3897 4149 4488 4709 4726 4623 4384 4132 3954 4324 4551 4591 4493 4422 4330 4294 4256 4269 4262 4342 4396 4495 4501 4555 4426 4354 4288 4463 4604 4745 4817 4811 4717 4685 4651 4500 4316 4241 4170 4042 3905 3851
1205 1566 2026 2221 2194 2154 2079 1886 2030 2086 1995 2030 1981 2060 2102 2206 2295 2325 2406 2526 2819 3484 3895 4127 4552 4723 4688 4376 4124 4197 4385 4477 4510 4533 4509 4466 4447 4448 4430 4412 4370 4430 4619 4745 4828 4903 4915 4896 4990 5049 5070 5099 5016 4946 4761 4648 4557 4364 4194 3976 3883 3847 3820
Wind_Speed
12 5 2 4 4 1 5 8 11 12 13 13 12 12 11 8 7 9 7 6 5 5 4 4 3 3 3 4 5 6 5 5 7 8 8 8 8 7 8 9 7 8 8 8 10 11 12 11 13 13 13 14 14 14 14 14 15 15 16 16 15 16 16
0 1 1 5 4 2 2 4 7 8 9 10 11 13 11 10 9 8 7 6 4 4 4 3 2 3 4 6 8 7 6 6 8 10 10 10 10 9 9 8 7 8 9 10 10 11 9 10 10 10 11 11 12 11 11 12 13 13 14 14 15 15 16
nan 4 2 4 4 1 3 5 5 7 9 9 10 11 12 11 9 8 8 7 4 3 4 2 2 3 6 8 8 6 6 7 9 9 9 8 7 8 9 8 8 8 9 10 11 10 10 8 8 8 7 8 9 9 9 10 11 12 12 13 14 15 15
nan 4 1 1 2 4 6 5 6 6 7 9 11 11 11 10 10 9 8 7 5 4 2 2 3 5 8 8 7 7 6 8 8 9 10 10 9 9 10 9 8 9 10 9 9 9 9 7 6 5 5 5 6 7 8 9 10 11 12 13 13 14 15
nan 2 3 4 7 11 9 5 6 7 8 9 10 10 10 9 10 10 8 6 5 2 2 4 6 7 9 8 10 10 8 8 10 12 12 12 10 10 9 8 8 8 10 10 9 8 7 5 4 2 3 4 5 6 8 9 10 10 11 13 13 13 14
6 4 4 5 8 10 9 8 7 6 6 9 11 10 9 9 8 9 7 6 4 5 6 6 5 7 7 7 9 10 11 11 12 11 12 12 10 10 9 9 8 9 10 8 8 7 5 4 2 1 3 3 5 7 8 9 10 11 11 12 13 14 14
11 8 6 5 7 9 12 11 7 4 4 6 8 9 8 7 6 7 8 6 5 5 5 5 3 4 6 8 8 8 8 9 11 11 12 11 10 10 11 11 10 10 10 11 8 6 4 2 0 2 4 5 6 7 9 10 11 12 12 12 12 13 13
13 12 9 7 7 8 11 12 9 9 9 10 11 10 8 6 6 7 6 6 6 5 4 4 3 3 5 7 7 6 8 9 11 11 11 10 11 11 11 11 10 10 11 8 7 6 4 2 3 3 5 6 7 8 8 10 11 12 13 12 12 12 12
12 14 13 10 8 8 10 11 11 11 11 11 11 9 7 6 6 6 5 6 6 3 1 2 3 3 5 5 6 6 8 10 11 11 10 9 11 10 10 11 11 10 8 8 8 8 5 5 4 5 6 6 7 8 8 9 10 11 13 13 13 12 11
10 13 13 13 12 11 12 15 17 17 14 12 9 7 5 4 5 6 6 5 5 2 1 2 4 5 5 6 6 6 8 10 11 10 9 8 10 9 10 11 11 10 9 8 9 7 7 7 6 6 7 7 7 8 8 9 9 10 11 12 13 12 12
11 14 18 19 18 15 17 22 21 16 12 10 7 5 5 5 5 5 6 6 5 4 4 4 6 6 5 6 5 6 7 8 10 10 9 9 10 9 10 10 10 11 9 9 8 8 9 8 8 7 7 7 7 7 7 8 10 11 11 11 11 11 11
11 16 20 21 21 20 19 20 18 15 13 10 6 5 5 6 7 6 6 5 6 6 7 6 7 6 6 6 6 7 6 7 9 9 9 9 10 10 10 10 10 10 10 10 8 8 8 8 8 8 6 6 5 6 7 8 9 10 11 11 10 9 9
12 17 20 21 22 20 20 23 19 15 12 8 5 5 7 7 8 7 6 6 7 8 7 7 8 8 8 8 7 8 8 8 9 11 12 12 12 13 12 11 10 10 10 11 9 8 8 8 7 7 7 5 5 5 6 7 8 8 9 10 10 9 8
12 17 22 23 22 21 22 21 18 15 11 8 6 6 8 9 8 6 6 6 7 8 8 10 9 9 10 10 10 10 9 10 11 12 12 13 13 12 11 11 11 11 11 11 9 8 7 7 7 7 8 6 5 5 6 6 7 8 9 9 9 8 7
12 14 19 21 19 20 21 20 16 13 10 7 7 7 8 10 9 9 10 10 9 8 7 8 9 9 9 10 10 10 11 13 14 15 14 13 12 11 10 10 11 11 11 10 9 9 7 7 7 7 6 6 6 5 6 6 6 7 8 9 9 8 6
12 14 16 16 18 19 19 15 12 10 9 9 8 8 10 10 8 5 6 6 7 6 8 10 9 9 9 9 9 12 14 15 16 15 14 12 11 11 11 12 13 12 10 9 7 7 7 7 6 6 6 6 5 5 6 6 6 7 11 10 8 8 6
11 14 14 14 18 19 17 14 14 15 13 10 8 7 8 6 5 4 5 6 7 7 9 10 10 10 9 9 12 13 13 14 13 13 12 11 12 13 13 12 13 12 11 9 8 7 7 6 5 5 6 5 5 5 5 6 6 10 11 11 11 7 5
8 12 14 15 16 16 17 18 20 18 14 11 10 9 9 8 8 7 6 4 5 7 10 10 10 9 10 11 12 12 11 11 11 11 10 12 12 12 13 14 13 12 11 10 8 7 7 5 5 5 6 6 5 4 5 6 7 10 10 11 11 8 4
5 9 12 13 12 14 18 18 16 13 12 12 11 10 8 8 10 12 10 6 6 7 6 6 7 8 9 11 12 11 11 11 9 9 9 9 11 13 14 13 11 10 10 8 8 9 6 5 5 5 6 5 5 4 5 5 7 9 9 9 10 10 6
5 8 10 10 11 14 16 16 16 15 15 12 9 8 9 11 12 12 10 8 8 7 8 7 6 6 6 8 8 8 9 9 8 8 8 9 11 12 11 10 8 9 10 10 10 7 5 6 5 6 7 6 6 5 4 4 4 8 8 8 9 9 7
5 7 9 11 16 19 18 14 15 18 18 16 16 18 17 17 16 16 14 10 8 9 9 9 7 6 4 3 3 3 5 5 6 6 7 8 9 9 7 7 8 9 10 9 8 7 7 7 7 7 8 7 7 6 4 3 3 5 6 6 7 7 6
7 8 10 14 15 16 17 16 17 16 13 15 19 20 18 16 16 14 12 12 10 10 10 10 9 7 5 3 2 1 1 1 2 3 4 5 5 5 4 5 7 9 11 10 10 9 10 10 9 8 7 7 7 7 4 3 3 5 4 5 5 7 4
17 13 15 19 17 16 16 16 17 18 21 20 18 17 17 19 18 17 17 15 13 11 11 11 10 8 5 3 1 1 1 1 2 2 3 3 3 3 3 5 7 9 12 11 10 11 10 10 11 10 10 10 9 7 6 6 6 6 5 5 8 9 4
28 26 27 30 32 32 32 33 34 33 27 24 21 18 20 21 20 21 20 18 17 15 13 12 11 9 6 4 3 4 4 4 4 3 4 4 4 3 4 5 8 9 12 10 11 11 11 13 14 14 13 12 9 8 8 8 10 9 7 7 10 9 6
32 30 31 32 30 30 33 33 33 36 38 36 34 34 31 28 24 23 21 21 19 18 15 13 12 10 8 7 6 6 7 7 6 5 5 5 5 5 6 7 8 10 12 11 11 12 14 16 16 15 15 13 11 9 8 9 9 8 8 9 11 9 8
35 34 32 34 37 37 38 39 41 42 41 39 37 36 33 31 28 24 23 22 22 21 18 15 13 14 13 11 10 10 10 11 9 8 8 7 7 7 7 9 10 12 12 12 13 14 17 17 17 15 15 15 14 14 11 9 10 10 9 12 11 10 8
38 37 35 35 36 38 41 45 46 45 45 44 44 41 36 34 30 28 27 27 26 22 21 21 22 21 18 16 14 13 13 13 12 11 11 11 10 9 10 11 12 13 13 13 15 16 17 17 17 17 16 18 17 16 14 12 11 12 13 12 12 11 10
42 42 40 38 38 37 38 41 42 44 45 44 45 44 42 38 33 33 33 31 26 23 27 29 26 23 22 19 17 15 14 14 15 14 14 14 14 14 12 13 13 14 14 16 17 16 16 18 19 19 19 20 20 18 15 14 10 14 15 13 12 14 14
47 44 42 42 41 38 38 39 40 41 39 40 42 44 44 45 42 39 38 34 34 37 37 34 33 29 25 22 19 16 15 16 16 17 18 17 16 16 14 15 15 15 16 17 17 17 17 18 19 20 20 22 22 20 17 17 16 12 15 13 14 15 16
45 44 43 42 39 36 37 38 37 39 40 42 44 46 48 48 45 41 39 37 37 36 35 34 34 33 30 26 21 19 18 18 18 19 19 18 19 18 17 17 17 16 16 17 17 17 17 19 21 21 21 21 22 21 20 20 19 16 12 14 14 15 17
44 43 42 42 41 38 36 37 38 39 41 42 43 43 44 45 46 45 45 42 40 39 37 36 36 33 29 27 25 23 22 21 20 20 21 22 23 22 21 20 20 18 17 17 16 15 15 18 22 22 22 22 21 21 22 26 28 28 24 20 16 14 13
43 42 42 41 42 40 37 36 37 37 38 38 37 37 37 40 44 46 44 43 43 42 39 38 37 34 31 30 28 26 27 25 23 22 23 25 26 26 25 24 22 19 18 17 16 15 14 16 21 22 24 23 22 22 28 31 31 30 28 27 26 23 21
43 42 41 41 41 39 38 36 36 36 35 34 33 33 33 35 38 39 42 45 46 47 43 40 38 36 35 33 32 32 31 28 28 28 28 28 30 29 29 28 26 23 20 18 17 17 15 16 20 23 25 24 24 29 31 31 32 31 30 30 30 30 30
44 44 43 41 41 41 40 39 37 35 34 32 31 32 32 34 36 38 40 43 44 47 45 42 41 40 39 37 38 37 35 33 32 31 31 32 33 33 31 31 30 28 25 22 21 20 18 17 19 22 25 25 28 31 31 31 31 30 30 31 32 33 34
44 43 43 45 44 43 42 39 38 35 35 33 31 31 32 33 33 34 37 38 40 42 41 40 40 40 41 41 41 40 39 39 38 38 40 44 46 47 44 40 38 36 35 33 30 24 22 20 19 21 24 27 30 31 30 30 29 27 30 33 34 37 38
48 47 45 43 44 45 44 43 40 39 39 39 39 38 37 36 35 34 34 35 36 37 38 37 37 37 37 38 38 40 41 41 41 43 42 42 44 46 49 52 51 46 41 38 36 35 27 24 22 22 26 30 30 30 30 27 29 39 42 41 43 44 45
52 50 47 46 46 46 46 45 44 43 43 43 42 41 38 36 34 33 33 34 34 34 34 33 34 34 34 35 34 34 36 38 40 40 41 40 41 42 44 45 52 57 55 49 46 44 40 32 29 30 30 32 33 36 43 47 47 46 45 47 47 49 50
54 50 49 48 46 45 47 47 46 45 43 42 43 42 40 37 34 32 32 34 34 34 33 32 31 31 31 31 32 33 34 35 35 36 37 38 38 39 40 42 45 50 56 58 56 56 53 47 44 41 40 39 40 41 41 44 47 48 49 50 50 51 52
Wind_Direction
6 0 270 243 242 292 33 8 348 346 350 350 344 333 317 294 275 264 263 274 298 283 286 299 307 256 259 229 229 226 213 175 166 175 186 185 179 165 156 159 155 141 139 126 107 93 91 89 79 74 70 66 61 57 50 45 42 41 39 37 33 30 29
20 63 260 250 232 139 52 333 327 337 343 345 340 335 320 304 276 268 271 275 284 287 285 300 298 247 235 223 217 216 203 165 167 179 184 187 183 172 170 166 157 146 136 126 118 111 107 89 77 68 61 55 51 44 38 33 29 26 25 25 24 26 25
nan 151 203 245 228 211 334 301 323 342 341 333 333 335 333 313 288 279 266 264 263 241 241 265 242 222 222 223 218 207 191 176 174 178 182 184 177 171 177 173 164 157 137 137 131 119 112 95 84 69 53 43 38 30 24 18 13 10 9 6 8 10 14
nan 145 119 324 283 291 299 303 327 328 329 340 340 338 331 317 286 268 263 272 270 232 254 251 224 213 221 226 216 203 186 175 175 176 177 183 179 178 181 176 171 162 158 134 127 122 116 104 82 71 45 29 21 13 4 6 359 355 353 349 354 356 359
nan 121 159 197 223 234 242 262 311 335 353 356 344 326 324 307 282 263 254 261 271 275 263 257 213 208 215 223 212 201 188 183 182 181 182 183 182 182 175 171 170 153 142 159 154 132 126 117 100 67 36 9 2 348 352 349 348 342 340 338 342 343 345
314 263 205 215 238 243 260 292 321 339 349 351 339 320 306 301 280 279 267 254 231 221 235 242 229 219 222 222 218 209 200 190 189 189 188 187 183 175 171 170 169 161 165 151 154 142 140 140 115 43 3 347 343 340 336 336 338 333 333 331 334 333 335
305 296 268 257 260 257 264 275 284 285 294 312 302 283 273 278 288 269 252 244 236 243 254 280 287 250 231 229 223 223 215 205 200 195 194 187 177 172 174 178 174 171 162 178 163 169 169 172 330 337 338 332 329 333 329 329 330 326 324 327 330 327 330
304 294 292 286 285 274 263 263 264 252 251 258 274 284 297 287 261 250 247 235 232 232 248 304 312 270 248 232 225 228 218 213 208 206 202 187 177 174 177 179 178 173 179 167 171 197 199 232 259 283 309 315 323 325 326 324 325 323 319 326 330 331 322
293 297 298 289 284 272 256 255 258 255 266 282 299 302 307 288 265 249 243 234 224 228 247 285 303 259 237 221 215 215 212 214 211 210 203 186 179 173 175 178 181 185 175 173 191 206 219 238 257 275 290 300 309 315 317 320 321 318 319 326 335 339 334
270 268 274 276 272 257 247 242 239 235 242 260 271 276 292 274 252 234 223 223 214 192 204 235 237 236 218 200 197 206 211 209 207 208 200 184 177 172 173 180 185 188 187 196 204 214 223 236 253 266 280 293 298 303 308 314 318 319 322 332 336 339 344
220 242 255 258 254 249 238 235 235 235 247 260 264 263 261 263 251 230 220 216 205 186 199 205 217 219 202 198 193 198 202 203 205 202 193 182 182 174 180 183 188 194 200 210 212 222 235 242 253 264 273 284 295 305 313 322 325 324 325 328 331 337 341
221 226 231 236 238 239 241 241 239 239 246 247 248 252 255 253 241 221 211 210 202 199 201 198 205 201 194 190 188 187 188 191 196 196 192 187 185 182 186 188 192 202 209 220 226 233 243 254 256 262 271 279 296 308 319 319 319 322 324 328 328 328 331
227 220 220 222 224 229 232 231 238 246 251 248 243 238 244 247 236 216 204 203 203 200 201 201 198 189 184 186 183 182 176 180 187 195 196 195 193 194 194 192 197 207 216 228 235 244 246 251 257 254 260 270 281 299 311 314 311 311 313 314 316 321 324
231 220 218 217 214 223 231 234 239 245 241 234 224 226 229 226 220 214 204 203 205 205 204 200 198 192 186 185 178 173 171 178 190 198 202 203 203 202 200 202 206 213 222 232 240 244 249 252 256 257 259 268 277 288 286 293 296 300 304 306 311 312 319
233 225 225 224 217 222 229 231 233 238 231 224 224 223 223 214 203 201 196 194 200 207 207 213 207 200 195 186 172 166 175 186 194 201 206 208 210 209 209 214 217 223 231 234 234 236 245 251 257 262 266 268 277 284 286 293 301 298 307 311 314 312 320
234 232 232 227 224 227 228 228 229 228 221 216 217 212 213 204 192 200 207 199 206 206 211 219 210 209 201 186 175 183 190 195 199 203 206 208 210 211 214 218 222 226 231 231 232 235 243 251 259 263 272 276 283 287 293 303 298 329 352 338 318 312 306
226 235 234 227 227 228 224 219 215 211 205 202 203 208 209 188 156 168 188 193 201 204 213 219 214 210 206 195 199 202 201 202 201 204 204 202 206 212 216 219 221 222 222 223 227 235 242 253 266 269 268 280 286 299 303 304 311 358 347 354 360 330 305
235 237 235 231 232 228 219 217 217 209 198 190 189 194 189 168 144 129 111 150 183 201 212 216 214 211 207 206 211 211 210 206 208 206 203 208 208 213 216 217 217 216 217 220 225 229 237 250 267 267 265 263 278 297 304 306 343 357 353 355 1 355 345
280 265 252 244 236 221 216 220 221 211 198 196 194 186 161 140 125 102 95 109 158 186 187 193 202 203 205 211 214 214 214 212 211 207 208 209 212 215 218 220 217 216 220 223 228 230 239 252 263 273 273 270 275 281 294 302 344 354 356 356 1 10 20
290 286 258 238 222 217 214 213 209 200 199 200 189 172 161 141 119 120 137 153 162 149 154 154 160 176 191 210 214 217 222 219 214 214 210 213 217 218 221 223 222 228 230 230 237 244 247 256 269 267 268 269 267 265 275 302 337 345 355 359 6 13 7
260 272 248 218 204 203 202 200 198 195 196 193 188 186 180 162 160 175 177 170 159 155 154 145 143 149 152 161 176 204 222 225 223 223 223 227 231 232 234 240 238 248 250 251 258 260 260 261 261 259 261 263 265 263 270 263 343 326 349 2 3 4 347
245 242 224 205 206 202 195 185 188 192 189 194 195 189 181 172 182 190 181 180 174 167 157 153 147 139 140 121 112 113 182 250 247 249 245 251 255 260 265 263 266 267 263 259 256 253 251 251 254 260 260 257 256 258 255 239 306 306 324 338 338 321 286
208 201 199 193 195 191 183 179 185 188 196 199 196 192 183 189 194 193 193 189 183 180 168 159 149 143 145 142 156 266 278 292 308 303 304 301 305 314 297 279 271 263 259 262 261 259 260 258 256 249 246 243 244 248 238 220 254 282 291 293 295 278 244
217 206 200 196 192 194 191 188 189 193 198 201 200 196 197 202 202 199 195 192 193 193 180 168 157 160 167 174 213 246 258 268 283 298 312 312 329 327 300 281 265 266 264 267 265 260 258 252 245 242 241 244 245 248 235 223 245 278 283 292 293 290 256
218 213 204 198 199 198 195 195 197 200 200 200 201 201 203 206 207 203 197 196 197 196 189 175 174 181 189 203 225 243 253 256 264 273 286 299 309 304 303 290 279 269 263 263 261 256 249 247 243 239 237 239 241 247 245 226 239 278 286 288 289 280 240
215 219 214 212 206 203 203 204 207 205 204 203 200 201 208 211 209 202 200 200 201 198 189 184 189 197 204 212 226 239 247 246 256 262 264 273 280 281 288 280 272 269 266 259 256 251 248 246 242 239 234 234 238 241 242 235 231 248 279 280 285 304 265
208 214 218 219 219 217 215 212 211 210 207 203 202 203 207 212 211 205 203 205 203 194 188 193 202 208 209 213 220 230 240 242 250 261 259 260 268 274 275 273 276 276 272 264 255 251 248 249 243 236 230 231 235 238 241 240 237 243 276 279 291 307 303
204 209 212 218 220 221 224 222 219 216 212 207 208 207 209 213 211 207 205 205 204 199 197 201 205 210 213 217 219 224 231 239 243 250 251 253 256 258 261 264 271 274 276 267 259 255 249 246 242 237 231 230 232 236 241 246 259 244 265 286 298 304 323
203 204 209 215 219 217 223 224 221 218 214 209 209 210 212 216 215 210 207 204 200 204 204 203 205 209 214 216 219 222 227 232 245 249 245 247 255 262 266 264 267 271 274 276 269 258 248 244 242 238 233 232 234 237 241 244 246 264 257 281 301 314 323
204 204 208 213 217 217 221 222 218 215 209 207 207 208 210 213 214 211 208 203 202 204 204 208 211 213 213 213 215 221 223 227 237 248 250 252 253 258 264 265 266 267 270 276 276 265 250 239 239 238 235 235 237 239 239 240 241 250 272 273 305 314 324
205 205 206 209 212 213 216 219 218 214 210 206 206 206 208 209 212 210 205 199 201 203 206 208 212 216 216 214 215 218 219 221 229 242 247 248 251 254 256 258 261 264 263 269 276 275 259 240 237 237 236 237 240 240 239 237 237 238 239 252 279 297 296
208 205 206 208 210 211 214 214 213 212 210 205 202 203 204 206 209 209 202 198 200 202 206 210 214 214 213 214 216 218 219 220 223 233 241 247 249 254 256 260 262 264 265 271 279 285 274 250 240 238 237 239 239 240 243 239 239 240 242 244 254 261 273
212 209 209 211 211 213 215 216 213 209 207 204 198 201 203 205 207 209 205 203 199 200 204 209 210 212 213 214 215 217 219 220 221 226 232 237 243 248 254 258 260 260 262 269 275 279 274 256 245 242 241 241 241 242 243 242 243 246 247 251 256 257 260
212 210 210 213 213 216 219 221 218 213 207 203 197 199 202 204 205 206 207 208 207 204 207 211 212 212 213 215 218 219 220 220 224 229 229 233 237 243 249 254 257 261 264 267 269 272 273 264 252 249 249 247 247 247 246 246 248 251 256 257 259 261 262
213 214 212 212 213 217 220 220 220 217 213 207 203 201 204 204 204 206 208 209 210 211 213 215 217 219 219 220 221 223 224 226 227 228 230 229 228 229 231 236 243 249 254 250 247 253 262 264 258 254 251 252 254 256 253 252 254 254 253 259 265 270 270
211 214 216 215 216 218 220 220 220 218 215 211 207 205 203 202 201 204 208 209 211 212 214 217 220 223 226 229 231 231 233 235 235 236 237 238 237 238 234 235 239 240 245 250 241 239 236 251 261 260 256 253 250 252 263 266 260 258 260 261 262 264 268
208 212 217 217 217 217 220 220 219 219 218 213 212 211 207 204 202 203 207 211 213 215 216 221 223 224 227 231 234 238 241 242 242 242 243 244 245 244 244 240 235 235 237 242 245 246 245 251 254 263 265 264 253 242 250 256 260 263 263 264 266 271 273
210 212 217 221 222 221 222 221 221 221 220 217 217 217 215 212 209 210 211 213 214 216 218 223 227 230 232 234 237 241 242 243 246 248 249 248 248 250 250 247 244 238 234 237 241 243 245 247 253 257 258 260 262 257 247 255 263 267 267 267 269 270 272